,,,PA_Meas_PMT16A,,PR_Meas_QMR101_102,,RH_Meas_QMH101,,SR_Meas_QMS101,,TA_Meas_QMH101,,GenWind,,GenWind,
date,time,status,PA,status,PR,status,RH,status,SR,status,TA,status,DirAvg,status,SpdAvg,
2008-05-14, 00:00:04,VALID,1009.93,VALID,0,VALID,94.5517,VALID,0,VALID,21.9408,VALID,292,VALID,0,
2008-05-14, 00:01:04,VALID,1009.94,VALID,0,VALID,94.6203,VALID,0,VALID,21.9196,VALID,292,VALID,0,
2008-05-14, 00:02:04,VALID,1009.92,VALID,0,VALID,94.689,VALID,0,VALID,21.9603,VALID,293,VALID,0.0816406,
2008-05-14, 00:03:04,VALID,1009.9,VALID,0,VALID,94.7347,VALID,0,VALID,21.9408,VALID,292,VALID,0.0921875,
2008-05-14, 00:04:04,VALID,1009.92,VALID,0,VALID,94.7652,VALID,0,VALID,21.9408,VALID,292,VALID,0.189844,
2008-05-14, 00:05:04,VALID,1009.94,VALID,0,VALID,94.8262,VALID,0,VALID,21.9408,VALID,292,VALID,0.317969,
2008-05-14, 00:06:04,VALID,1009.97,VALID,0,VALID,94.8644,VALID,0,VALID,21.9408,VALID,292,VALID,0.321484,
2008-05-14, 00:07:04,VALID,1010,VALID,0,VALID,94.9025,VALID,0,VALID,21.9408,VALID,293,VALID,0.35,
2008-05-14, 00:08:04,VALID,1010.01,VALID,0,VALID,94.9025,VALID,0,VALID,21.9213,VALID,292,VALID,0.366797,
2008-05-14, 00:09:04,VALID,1010.01,VALID,0,VALID,94.9254,VALID,0,VALID,21.9213,VALID,292,VALID,0.322656,
2008-05-14, 00:10:04,VALID,1010,VALID,0,VALID,94.9101,VALID,0,VALID,21.9213,VALID,292,VALID,0.284375,
2008-05-14, 00:11:04,VALID,1009.95,VALID,0,VALID,94.9025,VALID,0,VALID,21.8824,VALID,20,VALID,0.469531,
2008-05-14, 00:12:04,VALID,1009.95,VALID,0,VALID,94.9025,VALID,0,VALID,21.8824,VALID,31,VALID,0.466016,
2008-05-14, 00:13:04,VALID,1009.96,VALID,0,VALID,94.8644,VALID,0.105969,VALID,21.8629,VALID,39,VALID,0.442187,
2008-05-14, 00:14:04,VALID,1009.93,VALID,0,VALID,94.8644,VALID,0,VALID,21.8239,VALID,39,VALID,0.281641,
2008-05-14, 00:15:04,VALID,1009.93,VALID,0,VALID,94.8796,VALID,0,VALID,21.8239,VALID,39,VALID,0.277344,
2008-05-14, 00:16:04,VALID,1009.94,VALID,0,VALID,94.9178,VALID,0,VALID,21.8045,VALID,39,VALID,0.226563,
2008-05-14, 00:17:04,VALID,1009.95,VALID,0,VALID,94.8644,VALID,0,VALID,21.785,VALID,39,VALID,0.194531,
2008-05-14, 00:18:04,VALID,1009.93,VALID,0,VALID,94.8796,VALID,0,VALID,21.785,VALID,39,VALID,0.214453,
2008-05-14, 00:19:04,VALID,1009.93,VALID,0,VALID,94.8873,VALID,0,VALID,21.746,VALID,39,VALID,0.197656,
2008-05-14, 00:20:04,VALID,1009.94,VALID,0,VALID,94.8949,VALID,0,VALID,21.7655,VALID,39,VALID,0.152344,
2008-05-14, 00:21:04,VALID,1009.95,VALID,0,VALID,94.9101,VALID,0,VALID,21.746,VALID,39,VALID,0.135937,
2008-05-14, 00:22:04,VALID,1009.96,VALID,0,VALID,94.9483,VALID,0.105969,VALID,21.7054,VALID,39,VALID,0,
2008-05-14, 00:23:04,VALID,1009.94,VALID,0,VALID,94.9483,VALID,0,VALID,21.7071,VALID,39,VALID,0.410547,
2008-05-14, 00:24:04,VALID,1009.92,VALID,0,VALID,94.9483,VALID,0,VALID,21.6876,VALID,39,VALID,0.388672,
2008-05-14, 00:25:04,VALID,1009.94,VALID,0,VALID,94.9406,VALID,0.105969,VALID,21.6876,VALID,39,VALID,0.370703,
2008-05-14, 00:26:04,VALID,1009.89,VALID,0,VALID,94.9559,VALID,0,VALID,21.6487,VALID,39,VALID,0.419141,
2008-05-14, 00:27:04,VALID,1009.86,VALID,0,VALID,94.9483,VALID,0,VALID,21.6487,VALID,39,VALID,0.310156,
2008-05-14, 00:28:04,VALID,1009.84,VALID,0,VALID,94.9178,VALID,0,VALID,21.6292,VALID,39,VALID,0.16875,
2008-05-14, 00:29:04,VALID,1009.83,VALID,0,VALID,94.9025,VALID,0.105969,VALID,21.5886,VALID,39,VALID,0.135156,
2008-05-14, 00:30:04,VALID,1009.83,VALID,0,VALID,94.9864,VALID,0,VALID,21.6097,VALID,39,VALID,0,
2008-05-14, 00:31:04,VALID,1009.82,VALID,0,VALID,95.055,VALID,0.105969,VALID,21.6097,VALID,39,VALID,0,
2008-05-14, 00:32:04,VALID,1009.81,VALID,0,VALID,95.1313,VALID,0,VALID,21.6292,VALID,39,VALID,0,
2008-05-14, 00:33:04,VALID,1009.8,VALID,0,VALID,95.1542,VALID,0,VALID,21.6487,VALID,39,VALID,0,
2008-05-14, 00:34:04,VALID,1009.83,VALID,0,VALID,95.1923,VALID,0.105969,VALID,21.6681,VALID,39,VALID,0,
2008-05-14, 00:35:04,VALID,1009.8,VALID,0,VALID,95.2152,VALID,0.105969,VALID,21.647,VALID,39,VALID,0,
2008-05-14, 00:36:04,VALID,1009.77,VALID,0,VALID,95.2457,VALID,0,VALID,21.6876,VALID,39,VALID,0,
2008-05-14, 00:37:04,VALID,1009.75,VALID,0,VALID,95.2838,VALID,0,VALID,21.6876,VALID,39,VALID,0,
2008-05-14, 00:38:04,VALID,1009.75,VALID,0,VALID,95.3143,VALID,0,VALID,21.7071,VALID,39,VALID,0,
2008-05-14, 00:39:04,VALID,1009.72,VALID,0,VALID,95.3219,VALID,0.105969,VALID,21.7266,VALID,39,VALID,0,
2008-05-14, 00:40:04,VALID,1009.74,VALID,0,VALID,95.3219,VALID,0,VALID,21.746,VALID,39,VALID,0,
2008-05-14, 00:41:04,VALID,1009.74,VALID,0,VALID,95.2838,VALID,0,VALID,21.7266,VALID,39,VALID,0,
2008-05-14, 00:42:04,VALID,1009.74,VALID,0,VALID,95.2762,VALID,0.105969,VALID,21.7266,VALID,39,VALID,0,
2008-05-14, 00:43:04,VALID,1009.74,VALID,0,VALID,95.2914,VALID,0,VALID,21.7266,VALID,39,VALID,0,
2008-05-14, 00:44:04,VALID,1009.76,VALID,0,VALID,95.2609,VALID,0,VALID,21.7266,VALID,39,VALID,0,
2008-05-14, 00:45:04,VALID,1009.77,VALID,0,VALID,95.2533,VALID,0,VALID,21.7266,VALID,39,VALID,0,
2008-05-14, 00:46:04,VALID,1009.75,VALID,0,VALID,95.238,VALID,0,VALID,21.7266,VALID,39,VALID,0,
2008-05-14, 00:47:04,VALID,1009.76,VALID,0,VALID,95.2228,VALID,0,VALID,21.7266,VALID,39,VALID,0,
2008-05-14, 00:48:04,VALID,1009.74,VALID,0,VALID,95.2228,VALID,0.105969,VALID,21.7266,VALID,39,VALID,0.162891,
2008-05-14, 00:49:04,VALID,1009.76,VALID,0,VALID,95.1465,VALID,0,VALID,21.7266,VALID,39,VALID,0.267969,
2008-05-14, 00:50:04,VALID,1009.76,VALID,0,VALID,95.1008,VALID,0,VALID,21.7266,VALID,39,VALID,0.269531,
2008-05-14, 00:51:04,VALID,1009.78,VALID,0,VALID,95.055,VALID,0,VALID,21.6876,VALID,39,VALID,0.160938,
2008-05-14, 00:52:04,VALID,1009.8,VALID,0,VALID,95.0474,VALID,0,VALID,21.6876,VALID,39,VALID,0.0175781,
2008-05-14, 00:53:04,VALID,1009.81,VALID,0,VALID,95.0779,VALID,0,VALID,21.6876,VALID,39,VALID,0,
2008-05-14, 00:54:04,VALID,1009.83,VALID,0,VALID,95.0703,VALID,0,VALID,21.6876,VALID,39,VALID,0.234766,
2008-05-14, 00:55:04,VALID,1009.84,VALID,0,VALID,95.1008,VALID,0.105969,VALID,21.6681,VALID,39,VALID,0.297656,
2008-05-14, 00:56:04,VALID,1009.85,VALID,0,VALID,95.1008,VALID,0,VALID,21.6876,VALID,39,VALID,0.398047,
2008-05-14, 00:57:04,VALID,1009.86,VALID,0,VALID,95.0779,VALID,0,VALID,21.6681,VALID,39,VALID,0.339063,
2008-05-14, 00:58:04,VALID,1009.85,VALID,0,VALID,95.1008,VALID,0.105969,VALID,21.6487,VALID,39,VALID,0.305469,
2008-05-14, 00:59:04,VALID,1009.83,VALID,0,VALID,95.0855,VALID,0,VALID,21.6681,VALID,39,VALID,0.288672,
2008-05-14, 01:00:04,VALID,1009.84,VALID,0,VALID,95.0931,VALID,0,VALID,21.6487,VALID,39,VALID,0.332812,
2008-05-14, 01:01:04,VALID,1009.8,VALID,0,VALID,95.1389,VALID,0,VALID,21.6698,VALID,39,VALID,0.315234,
2008-05-14, 01:02:04,VALID,1009.78,VALID,0,VALID,95.1008,VALID,0,VALID,21.6487,VALID,39,VALID,0.172266,
2008-05-14, 01:03:04,VALID,1009.78,VALID,0,VALID,95.1313,VALID,0,VALID,21.6487,VALID,39,VALID,0.115625,
2008-05-14, 01:04:04,VALID,1009.78,VALID,0,VALID,95.1236,VALID,0,VALID,21.6487,VALID,39,VALID,0.207031,
2008-05-14, 01:05:04,VALID,1009.78,VALID,0,VALID,95.1465,VALID,0,VALID,21.6487,VALID,39,VALID,0.195703,
2008-05-14, 01:06:04,VALID,1009.75,VALID,0,VALID,95.1542,VALID,0,VALID,21.6487,VALID,39,VALID,0.144141,
2008-05-14, 01:07:04,VALID,1009.72,VALID,0,VALID,95.1236,VALID,0,VALID,21.6487,VALID,39,VALID,0.121484,
2008-05-14, 01:08:04,VALID,1009.72,VALID,0,VALID,95.0703,VALID,0.105969,VALID,21.6503,VALID,39,VALID,0,
2008-05-14, 01:09:04,VALID,1009.68,VALID,0,VALID,95.0703,VALID,0,VALID,21.6487,VALID,39,VALID,0,
2008-05-14, 01:10:04,VALID,1009.66,VALID,0,VALID,95.0779,VALID,0,VALID,21.6292,VALID,39,VALID,0,
2008-05-14, 01:11:04,VALID,1009.65,VALID,0,VALID,95.0321,VALID,0.105969,VALID,21.6292,VALID,39,VALID,0,
2008-05-14, 01:12:04,VALID,1009.64,VALID,0,VALID,95.0474,VALID,0.105969,VALID,21.6097,VALID,39,VALID,0,
2008-05-14, 01:13:04,VALID,1009.6,VALID,0,VALID,95.0321,VALID,0,VALID,21.6097,VALID,39,VALID,0,
2008-05-14, 01:14:04,VALID,1009.57,VALID,0,VALID,95.0321,VALID,0,VALID,21.6097,VALID,39,VALID,0,
2008-05-14, 01:15:04,VALID,1009.56,VALID,0,VALID,95.0321,VALID,0,VALID,21.6308,VALID,39,VALID,0,
2008-05-14, 01:16:04,VALID,1009.56,VALID,0,VALID,95.0474,VALID,0,VALID,21.6097,VALID,39,VALID,0,
2008-05-14, 01:17:04,VALID,1009.54,VALID,0,VALID,95.0398,VALID,0.105969,VALID,21.6292,VALID,39,VALID,0.133203,
2008-05-14, 01:18:04,VALID,1009.53,VALID,0,VALID,95.0245,VALID,0.105969,VALID,21.6097,VALID,39,VALID,0,
2008-05-14, 01:19:04,VALID,1009.5,VALID,0,VALID,95.0245,VALID,0,VALID,21.5902,VALID,39,VALID,0,
2008-05-14, 01:20:04,VALID,1009.48,VALID,0,VALID,95.0321,VALID,0,VALID,21.5902,VALID,39,VALID,0,
2008-05-14, 01:21:04,VALID,1009.48,VALID,0,VALID,95.0398,VALID,0,VALID,21.5902,VALID,39,VALID,0,
2008-05-14, 01:22:04,VALID,1009.46,VALID,0,VALID,95.055,VALID,0,VALID,21.6114,VALID,39,VALID,0,
2008-05-14, 01:23:04,VALID,1009.46,VALID,0,VALID,95.055,VALID,0,VALID,21.5919,VALID,39,VALID,0,
2008-05-14, 01:24:04,VALID,1009.45,VALID,0,VALID,95.0855,VALID,0,VALID,21.5902,VALID,39,VALID,0,
2008-05-14, 01:25:04,VALID,1009.45,VALID,0,VALID,95.116,VALID,0,VALID,21.5902,VALID,39,VALID,0,
2008-05-14, 01:26:04,VALID,1009.48,VALID,0,VALID,95.1313,VALID,0,VALID,21.5902,VALID,39,VALID,0,
2008-05-14, 01:27:04,VALID,1009.45,VALID,0,VALID,95.1236,VALID,0,VALID,21.6097,VALID,39,VALID,0,
2008-05-14, 01:28:04,VALID,1009.45,VALID,0,VALID,95.1542,VALID,0,VALID,21.6097,VALID,39,VALID,0.233203,
2008-05-14, 01:29:04,VALID,1009.43,VALID,0,VALID,95.1389,VALID,0.105969,VALID,21.5902,VALID,39,VALID,0.345703,
2008-05-14, 01:30:04,VALID,1009.4,VALID,0,VALID,95.0931,VALID,0,VALID,21.6097,VALID,39,VALID,0.376172,
2008-05-14, 01:31:04,VALID,1009.37,VALID,0,VALID,95.0703,VALID,0,VALID,21.5513,VALID,39,VALID,0.443359,
2008-05-14, 01:32:04,VALID,1009.37,VALID,0,VALID,95.055,VALID,0.105969,VALID,21.5513,VALID,39,VALID,0.666797,
2008-05-14, 01:33:04,VALID,1009.36,VALID,0,VALID,95.1313,VALID,0.105969,VALID,21.5708,VALID,41,VALID,0.375781,
2008-05-14, 01:34:04,VALID,1009.36,VALID,0,VALID,95.0855,VALID,0,VALID,21.5513,VALID,41,VALID,0.327734,
2008-05-14, 01:35:04,VALID,1009.34,VALID,0,VALID,95.0779,VALID,0.105969,VALID,21.5513,VALID,41,VALID,0.213672,
2008-05-14, 01:36:04,VALID,1009.31,VALID,0,VALID,95.0855,VALID,0,VALID,21.5513,VALID,41,VALID,0.196484,
2008-05-14, 01:37:04,VALID,1009.35,VALID,0,VALID,95.0931,VALID,0,VALID,21.5513,VALID,40,VALID,0.148047,
2008-05-14, 01:38:04,VALID,1009.36,VALID,0,VALID,95.1008,VALID,0,VALID,21.5513,VALID,41,VALID,0.323047,
2008-05-14, 01:39:04,VALID,1009.34,VALID,0,VALID,95.1389,VALID,0,VALID,21.5708,VALID,41,VALID,0.172656,
2008-05-14, 01:40:04,VALID,1009.35,VALID,0,VALID,95.1008,VALID,0,VALID,21.5708,VALID,41,VALID,0.378906,
2008-05-14, 01:41:04,VALID,1009.33,VALID,0,VALID,95.0855,VALID,0.105969,VALID,21.5513,VALID,41,VALID,0.212891,
2008-05-14, 01:42:04,VALID,1009.33,VALID,0,VALID,95.0321,VALID,0,VALID,21.5708,VALID,41,VALID,0.291406,
2008-05-14, 01:43:04,VALID,1009.33,VALID,0,VALID,94.9483,VALID,0,VALID,21.5318,VALID,41,VALID,0.326562,
2008-05-14, 01:44:04,VALID,1009.34,VALID,0,VALID,94.9711,VALID,0,VALID,21.5318,VALID,41,VALID,0.328906,
2008-05-14, 01:45:04,VALID,1009.34,VALID,0,VALID,94.9788,VALID,0,VALID,21.5724,VALID,41,VALID,0.196094,
2008-05-14, 01:46:04,VALID,1009.33,VALID,0,VALID,94.994,VALID,0,VALID,21.5724,VALID,41,VALID,0.176172,
2008-05-14, 01:47:04,VALID,1009.33,VALID,0,VALID,94.933,VALID,0,VALID,21.5513,VALID,41,VALID,0.213672,
2008-05-14, 01:48:04,VALID,1009.33,VALID,0,VALID,94.9483,VALID,0.105969,VALID,21.5318,VALID,41,VALID,0.266016,
2008-05-14, 01:49:04,VALID,1009.35,VALID,0,VALID,94.9559,VALID,0,VALID,21.5318,VALID,41,VALID,0.330078,
2008-05-14, 01:50:04,VALID,1009.37,VALID,0,VALID,95.0093,VALID,0,VALID,21.5124,VALID,41,VALID,0.369922,
2008-05-14, 01:51:04,VALID,1009.37,VALID,0,VALID,95.0703,VALID,0,VALID,21.5335,VALID,41,VALID,0.296875,
2008-05-14, 01:52:04,VALID,1009.38,VALID,0,VALID,95.0779,VALID,0,VALID,21.4929,VALID,41,VALID,0.313672,
2008-05-14, 01:53:04,VALID,1009.37,VALID,0,VALID,95.0703,VALID,0,VALID,21.514,VALID,41,VALID,0.185547,
2008-05-14, 01:54:04,VALID,1009.36,VALID,0,VALID,95.1313,VALID,0,VALID,21.4929,VALID,41,VALID,0.229297,
2008-05-14, 01:55:04,VALID,1009.37,VALID,0,VALID,95.1236,VALID,0.105969,VALID,21.4945,VALID,41,VALID,0.20625,
2008-05-14, 01:56:04,VALID,1009.36,VALID,0,VALID,95.0931,VALID,0,VALID,21.4734,VALID,41,VALID,0.10625,
2008-05-14, 01:57:04,VALID,1009.36,VALID,0,VALID,95.0703,VALID,0,VALID,21.4539,VALID,41,VALID,0.126953,
2008-05-14, 01:58:04,VALID,1009.37,VALID,0,VALID,95.1008,VALID,0,VALID,21.4556,VALID,41,VALID,0.233984,
2008-05-14, 01:59:04,VALID,1009.38,VALID,0,VALID,95.116,VALID,0,VALID,21.4556,VALID,41,VALID,0.258203,
2008-05-14, 02:00:04,VALID,1009.38,VALID,0,VALID,95.1542,VALID,0,VALID,21.4556,VALID,41,VALID,0.24375,
2008-05-14, 02:01:04,VALID,1009.37,VALID,0,VALID,95.1618,VALID,0,VALID,21.415,VALID,41,VALID,0.276563,
2008-05-14, 02:02:04,VALID,1009.36,VALID,0,VALID,95.1923,VALID,0,VALID,21.4345,VALID,41,VALID,0.208203,
2008-05-14, 02:03:04,VALID,1009.34,VALID,0,VALID,95.2075,VALID,0,VALID,21.4345,VALID,41,VALID,0.0117188,
2008-05-14, 02:04:04,VALID,1009.36,VALID,0,VALID,95.2152,VALID,0,VALID,21.4345,VALID,41,VALID,0,
2008-05-14, 02:05:04,VALID,1009.31,VALID,0,VALID,95.238,VALID,0,VALID,21.415,VALID,41,VALID,0,
2008-05-14, 02:06:04,VALID,1009.27,VALID,0,VALID,95.2533,VALID,0,VALID,21.4345,VALID,41,VALID,0,
2008-05-14, 02:07:04,VALID,1009.27,VALID,0,VALID,95.2533,VALID,0,VALID,21.4345,VALID,41,VALID,0,
2008-05-14, 02:08:04,VALID,1009.25,VALID,0,VALID,95.2228,VALID,0,VALID,21.4345,VALID,41,VALID,0,
2008-05-14, 02:09:04,VALID,1009.22,VALID,0,VALID,95.2228,VALID,0,VALID,21.4345,VALID,41,VALID,0.225391,
2008-05-14, 02:10:04,VALID,1009.19,VALID,0,VALID,95.1999,VALID,0,VALID,21.3955,VALID,41,VALID,0.203125,
2008-05-14, 02:11:04,VALID,1009.21,VALID,0,VALID,95.1847,VALID,0,VALID,21.3566,VALID,41,VALID,0.206641,
2008-05-14, 02:12:04,VALID,1009.23,VALID,0,VALID,95.1999,VALID,0,VALID,21.376,VALID,41,VALID,0.216016,
2008-05-14, 02:13:04,VALID,1009.23,VALID,0,VALID,95.2457,VALID,0,VALID,21.376,VALID,41,VALID,0.278906,
2008-05-14, 02:14:04,VALID,1009.21,VALID,0,VALID,95.2914,VALID,0,VALID,21.4166,VALID,41,VALID,0.31875,
2008-05-14, 02:15:04,VALID,1009.21,VALID,0,VALID,95.3448,VALID,0,VALID,21.4361,VALID,41,VALID,0.242969,
2008-05-14, 02:16:04,VALID,1009.23,VALID,0,VALID,95.3372,VALID,0,VALID,21.415,VALID,41,VALID,0,
2008-05-14, 02:17:04,VALID,1009.19,VALID,0,VALID,95.3143,VALID,0,VALID,21.3955,VALID,41,VALID,0,
2008-05-14, 02:18:04,VALID,1009.16,VALID,0,VALID,95.3143,VALID,0,VALID,21.376,VALID,41,VALID,0,
2008-05-14, 02:19:04,VALID,1009.11,VALID,0,VALID,95.3753,VALID,0,VALID,21.3955,VALID,41,VALID,0.00585938,
2008-05-14, 02:20:04,VALID,1009.08,VALID,0,VALID,95.3982,VALID,0,VALID,21.415,VALID,41,VALID,0,
2008-05-14, 02:21:04,VALID,1009.06,VALID,0,VALID,95.3982,VALID,0,VALID,21.4361,VALID,41,VALID,0,
2008-05-14, 02:22:04,VALID,1009.05,VALID,0,VALID,95.3982,VALID,0,VALID,21.415,VALID,41,VALID,0,
2008-05-14, 02:23:04,VALID,1009.04,VALID,0,VALID,95.4058,VALID,0,VALID,21.4345,VALID,41,VALID,0,
2008-05-14, 02:24:04,VALID,1009.03,VALID,0,VALID,95.4134,VALID,0,VALID,21.415,VALID,41,VALID,0,
2008-05-14, 02:25:04,VALID,1009.04,VALID,0,VALID,95.4211,VALID,0,VALID,21.415,VALID,41,VALID,0,
2008-05-14, 02:26:04,VALID,1009.03,VALID,0,VALID,95.4363,VALID,0,VALID,21.4556,VALID,41,VALID,0,
2008-05-14, 02:27:04,VALID,1009.02,VALID,0,VALID,95.4592,VALID,0,VALID,21.4345,VALID,41,VALID,0.249219,
2008-05-14, 02:28:04,VALID,1009.03,VALID,0,VALID,95.4363,VALID,0,VALID,21.4361,VALID,41,VALID,0.271484,
2008-05-14, 02:29:04,VALID,1009.04,VALID,0,VALID,95.4592,VALID,0,VALID,21.4361,VALID,41,VALID,0.169141,
2008-05-14, 02:30:04,VALID,1009.06,VALID,0,VALID,95.4668,VALID,0,VALID,21.4134,VALID,41,VALID,0.0921875,
2008-05-14, 02:31:04,VALID,1009.02,VALID,0,VALID,95.4897,VALID,0,VALID,21.4345,VALID,41,VALID,0.0621094,
2008-05-14, 02:32:04,VALID,1009.01,VALID,0,VALID,95.4592,VALID,0,VALID,21.415,VALID,41,VALID,0.158203,
2008-05-14, 02:33:04,VALID,1009.01,VALID,0,VALID,95.4058,VALID,0,VALID,21.415,VALID,41,VALID,0.246094,
2008-05-14, 02:34:04,VALID,1009.03,VALID,0,VALID,95.3982,VALID,0,VALID,21.4166,VALID,41,VALID,0.292188,
2008-05-14, 02:35:04,VALID,1009.05,VALID,0,VALID,95.4058,VALID,0,VALID,21.3955,VALID,41,VALID,0.313281,
2008-05-14, 02:36:04,VALID,1009.05,VALID,0,VALID,95.3982,VALID,0,VALID,21.3971,VALID,41,VALID,0.333203,
2008-05-14, 02:37:04,VALID,1009.11,VALID,0,VALID,95.4668,VALID,0,VALID,21.3955,VALID,41,VALID,0.276563,
2008-05-14, 02:38:04,VALID,1009.08,VALID,0,VALID,95.4287,VALID,0,VALID,21.3955,VALID,41,VALID,0.192188,
2008-05-14, 02:39:04,VALID,1009.13,VALID,0,VALID,95.4134,VALID,0,VALID,21.3566,VALID,41,VALID,0.206641,
2008-05-14, 02:40:04,VALID,1009.13,VALID,0,VALID,95.3524,VALID,0,VALID,21.3566,VALID,41,VALID,0.180078,
2008-05-14, 02:41:04,VALID,1009.12,VALID,0,VALID,95.3753,VALID,0,VALID,21.3371,VALID,41,VALID,0.147656,
2008-05-14, 02:42:04,VALID,1009.09,VALID,0,VALID,95.36,VALID,0,VALID,21.3176,VALID,41,VALID,0.170312,
2008-05-14, 02:43:04,VALID,1009.11,VALID,0,VALID,95.3295,VALID,0,VALID,21.2982,VALID,41,VALID,0.129297,
2008-05-14, 02:44:04,VALID,1009.1,VALID,0,VALID,95.3219,VALID,0,VALID,21.2787,VALID,41,VALID,0.144922,
2008-05-14, 02:45:04,VALID,1009.09,VALID,0,VALID,95.3219,VALID,0,VALID,21.2592,VALID,41,VALID,0.192188,
2008-05-14, 02:46:04,VALID,1009.07,VALID,0,VALID,95.3219,VALID,0.105969,VALID,21.2397,VALID,41,VALID,0.103906,
2008-05-14, 02:47:04,VALID,1009.06,VALID,0,VALID,95.3219,VALID,0,VALID,21.2203,VALID,41,VALID,0,
2008-05-14, 02:48:04,VALID,1009.02,VALID,0,VALID,95.3524,VALID,0,VALID,21.2397,VALID,41,VALID,0,
2008-05-14, 02:49:04,VALID,1009.03,VALID,0,VALID,95.3753,VALID,0,VALID,21.2397,VALID,41,VALID,0.254687,
2008-05-14, 02:50:04,VALID,1009,VALID,0,VALID,95.3982,VALID,0,VALID,21.2397,VALID,41,VALID,0.274609,
2008-05-14, 02:51:04,VALID,1008.99,VALID,0,VALID,95.4439,VALID,0,VALID,21.2592,VALID,41,VALID,0.317187,
2008-05-14, 02:52:04,VALID,1008.97,VALID,0,VALID,95.4821,VALID,0,VALID,21.2803,VALID,41,VALID,0.217578,
2008-05-14, 02:53:04,VALID,1008.95,VALID,0,VALID,95.5202,VALID,0,VALID,21.2592,VALID,41,VALID,0.175,
2008-05-14, 02:54:04,VALID,1008.93,VALID,0,VALID,95.5354,VALID,0,VALID,21.2787,VALID,41,VALID,0.135547,
2008-05-14, 02:55:04,VALID,1008.95,VALID,0,VALID,95.5126,VALID,0,VALID,21.2803,VALID,41,VALID,0.169922,
2008-05-14, 02:56:04,VALID,1008.92,VALID,0,VALID,95.4973,VALID,0,VALID,21.2592,VALID,41,VALID,0.239844,
2008-05-14, 02:57:04,VALID,1008.95,VALID,0,VALID,95.4363,VALID,0,VALID,21.2397,VALID,41,VALID,0.220703,
2008-05-14, 02:58:04,VALID,1008.95,VALID,0,VALID,95.4516,VALID,0,VALID,21.2608,VALID,41,VALID,0.250391,
2008-05-14, 02:59:04,VALID,1008.95,VALID,0,VALID,95.4897,VALID,0,VALID,21.2187,VALID,41,VALID,0.0886719,
2008-05-14, 03:00:04,VALID,1008.97,VALID,0,VALID,95.4973,VALID,0,VALID,21.2397,VALID,41,VALID,0.239063,
2008-05-14, 03:01:04,VALID,1008.94,VALID,0,VALID,95.5202,VALID,0,VALID,21.2608,VALID,41,VALID,0.132422,
2008-05-14, 03:02:04,VALID,1008.94,VALID,0,VALID,95.4668,VALID,0,VALID,21.2397,VALID,41,VALID,0.232422,
2008-05-14, 03:03:04,VALID,1008.92,VALID,0,VALID,95.5202,VALID,0.105969,VALID,21.2203,VALID,41,VALID,0.170312,
2008-05-14, 03:04:04,VALID,1008.89,VALID,0,VALID,95.4744,VALID,0.105969,VALID,21.2203,VALID,41,VALID,0.258984,
2008-05-14, 03:05:04,VALID,1008.87,VALID,0,VALID,95.4897,VALID,0,VALID,21.2008,VALID,41,VALID,0.190625,
2008-05-14, 03:06:04,VALID,1008.86,VALID,0,VALID,95.5431,VALID,0,VALID,21.2203,VALID,41,VALID,0.101563,
2008-05-14, 03:07:04,VALID,1008.82,VALID,0,VALID,95.5202,VALID,0,VALID,21.2203,VALID,41,VALID,0.18125,
2008-05-14, 03:08:04,VALID,1008.84,VALID,0,VALID,95.5812,VALID,0,VALID,21.2203,VALID,41,VALID,0.126172,
2008-05-14, 03:09:04,VALID,1008.79,VALID,0,VALID,95.6422,VALID,0.105969,VALID,21.2397,VALID,41,VALID,0.0195313,
2008-05-14, 03:10:04,VALID,1008.79,VALID,0,VALID,95.6574,VALID,0,VALID,21.2592,VALID,41,VALID,0.000390625,
2008-05-14, 03:11:04,VALID,1008.79,VALID,0,VALID,95.6651,VALID,0,VALID,21.2982,VALID,41,VALID,0.147266,
2008-05-14, 03:12:04,VALID,1008.77,VALID,0,VALID,95.6727,VALID,0,VALID,21.2982,VALID,41,VALID,0,
2008-05-14, 03:13:04,VALID,1008.74,VALID,0,VALID,95.6727,VALID,0,VALID,21.3176,VALID,41,VALID,0,
2008-05-14, 03:14:04,VALID,1008.73,VALID,0,VALID,95.6117,VALID,0,VALID,21.3176,VALID,41,VALID,0.0046875,
2008-05-14, 03:15:04,VALID,1008.71,VALID,0,VALID,95.4973,VALID,0.105969,VALID,21.2787,VALID,41,VALID,0.390625,
2008-05-14, 03:16:04,VALID,1008.72,VALID,0,VALID,95.4363,VALID,0,VALID,21.2608,VALID,41,VALID,0.452344,
2008-05-14, 03:17:04,VALID,1008.73,VALID,0,VALID,95.4744,VALID,0,VALID,21.2592,VALID,41,VALID,0.292969,
2008-05-14, 03:18:04,VALID,1008.75,VALID,0,VALID,95.4439,VALID,0.105969,VALID,21.2381,VALID,41,VALID,0.124219,
2008-05-14, 03:19:04,VALID,1008.78,VALID,0,VALID,95.3905,VALID,0,VALID,21.2203,VALID,41,VALID,0.33125,
2008-05-14, 03:20:04,VALID,1008.81,VALID,0,VALID,95.3753,VALID,0,VALID,21.1813,VALID,41,VALID,0.28125,
2008-05-14, 03:21:04,VALID,1008.77,VALID,0,VALID,95.4134,VALID,0,VALID,21.1813,VALID,41,VALID,0.251172,
2008-05-14, 03:22:04,VALID,1008.77,VALID,0,VALID,95.4897,VALID,0,VALID,21.1813,VALID,41,VALID,0.254687,
2008-05-14, 03:23:04,VALID,1008.79,VALID,0,VALID,95.4668,VALID,0,VALID,21.1813,VALID,41,VALID,0.324219,
2008-05-14, 03:24:04,VALID,1008.81,VALID,0,VALID,95.3905,VALID,0,VALID,21.1813,VALID,41,VALID,0.370313,
2008-05-14, 03:25:04,VALID,1008.83,VALID,0,VALID,95.3982,VALID,0.105969,VALID,21.1619,VALID,41,VALID,0.325,
2008-05-14, 03:26:04,VALID,1008.84,VALID,0,VALID,95.5278,VALID,0,VALID,21.1829,VALID,41,VALID,0.355078,
2008-05-14, 03:27:04,VALID,1008.8,VALID,0,VALID,95.6193,VALID,0,VALID,21.1813,VALID,41,VALID,0.335156,
2008-05-14, 03:28:04,VALID,1008.8,VALID,0,VALID,95.5736,VALID,0,VALID,21.1619,VALID,41,VALID,0.303516,
2008-05-14, 03:29:04,VALID,1008.79,VALID,0,VALID,95.5278,VALID,0,VALID,21.1424,VALID,41,VALID,0.289063,
2008-05-14, 03:30:04,VALID,1008.8,VALID,0,VALID,95.4516,VALID,0,VALID,21.1019,VALID,41,VALID,0.259766,
2008-05-14, 03:31:04,VALID,1008.78,VALID,0,VALID,95.4363,VALID,0,VALID,21.084,VALID,41,VALID,0.217578,
2008-05-14, 03:32:04,VALID,1008.8,VALID,0,VALID,95.4363,VALID,0.105969,VALID,21.0645,VALID,41,VALID,0.1125,
2008-05-14, 03:33:04,VALID,1008.81,VALID,0,VALID,95.4287,VALID,0,VALID,21.045,VALID,41,VALID,0,
2008-05-14, 03:34:04,VALID,1008.78,VALID,0,VALID,95.4821,VALID,0,VALID,21.0256,VALID,41,VALID,0,
2008-05-14, 03:35:04,VALID,1008.8,VALID,0,VALID,95.5126,VALID,0,VALID,21.0061,VALID,41,VALID,0.00429688,
2008-05-14, 03:36:04,VALID,1008.78,VALID,0,VALID,95.5583,VALID,0.105969,VALID,20.985,VALID,41,VALID,0,
2008-05-14, 03:37:04,VALID,1008.79,VALID,0,VALID,95.5583,VALID,0.105969,VALID,21.0061,VALID,41,VALID,0,
2008-05-14, 03:38:04,VALID,1008.81,VALID,0,VALID,95.6041,VALID,0,VALID,21.0061,VALID,41,VALID,0.110547,
2008-05-14, 03:39:04,VALID,1008.81,VALID,0,VALID,95.5888,VALID,0,VALID,20.9866,VALID,41,VALID,0,
2008-05-14, 03:40:04,VALID,1008.84,VALID,0,VALID,95.6651,VALID,0.105969,VALID,21.0061,VALID,41,VALID,0.151953,
2008-05-14, 03:41:04,VALID,1008.82,VALID,0,VALID,95.7032,VALID,0,VALID,21.0061,VALID,41,VALID,0.133203,
2008-05-14, 03:42:04,VALID,1008.85,VALID,0,VALID,95.6956,VALID,0,VALID,21.0272,VALID,41,VALID,0,
2008-05-14, 03:43:04,VALID,1008.86,VALID,0,VALID,95.6956,VALID,0,VALID,21.0061,VALID,41,VALID,0,
2008-05-14, 03:44:04,VALID,1008.86,VALID,0,VALID,95.6956,VALID,0,VALID,21.0061,VALID,41,VALID,0,
2008-05-14, 03:45:04,VALID,1008.84,VALID,0,VALID,95.688,VALID,0,VALID,20.9866,VALID,41,VALID,0,
2008-05-14, 03:46:04,VALID,1008.85,VALID,0,VALID,95.6803,VALID,0,VALID,20.9672,VALID,41,VALID,0,
2008-05-14, 03:47:04,VALID,1008.85,VALID,0,VALID,95.6574,VALID,0,VALID,20.9477,VALID,41,VALID,0,
2008-05-14, 03:48:04,VALID,1008.8,VALID,0,VALID,95.688,VALID,0,VALID,20.9282,VALID,41,VALID,0,